Weather History for KTVF - November, 2012

Change the Weather History Date:

Friday, November 9, 2012

  Actual Average Record
Temperature  
Mean Temperature 30 °F -  
Max Temperature 33 °F 34 °F 64 °F (2010)
Min Temperature 28 °F 21 °F -3 °F (1973)
Degree Days  
Heating Degree Days 34    
Moisture  
Dew Point 25 °F    
Average Humidity 81    
Maximum Humidity 93    
Minimum Humidity 70    
Precipitation  
Precipitation 0.00 in - - ()
Sea Level Pressure  
Sea Level Pressure 30.13 in    
Wind  
Wind Speed 14 mph (NE)    
Max Wind Speed 23 mph    
Max Gust Speed 28 mph    
Visibility 10 miles    
Events      
Averages and records for this station are not official NWS values.
T = Trace of Precipitation, MM = Missing Value Source: NWS Daily Summary

Daily Weather History Graph

Daily Weather History Graph

Search for Another Location

Airport or City:

Trip Planner

Search our weather history database for the weather conditions in past years. The results will help you decide how hot, cold, wet, or windy it might be!

Date:

Astronomy

Nov. 09, 2012 Rise Set
Actual Time 7:22 AM CST 4:53 PM CST
Civil Twilight 6:49 AM CST 5:26 PM CST
Nautical Twilight 6:12 AM CST 6:04 PM CST
Astronomical Twilight 5:35 AM CST 6:40 PM CST
Moon 2:02 AM CST (11/9) 2:25 PM CST (11/9)
Length of Visible Light 10h 37m
Length of Day
9h 30m
Waning Crescent, 23% of the Moon is Illuminated
Nov 9
Waning Crescent
Nov 13
New
Nov 20
First Quarter
Nov 28
Full
Dec 6
Last Quarter

Hourly Weather History & Observations

Time (CST) Temp. Windchill Dew Point Humidity Pressure Visibility Wind Dir Wind Speed Gust Speed Precip Events Conditions
12:15 AM 30.2 °F 21.3 °F 24.8 °F 80% 30.19 in 10.0 mi North 10.4 mph - N/A   Overcast
12:35 AM 28.4 °F 18.5 °F 26.6 °F 93% 30.20 in 10.0 mi North 11.5 mph - N/A   Overcast
12:55 AM 28.4 °F 17.5 °F 24.8 °F 86% 30.20 in 10.0 mi North 13.8 mph - N/A   Overcast
1:15 AM 30.2 °F 20.2 °F 24.8 °F 80% 30.20 in 10.0 mi North 12.7 mph - N/A   Overcast
1:35 AM 28.4 °F 19.7 °F 24.8 °F 86% 30.21 in 10.0 mi North 9.2 mph - N/A   Overcast
1:55 AM 28.4 °F 18.0 °F 24.8 °F 86% 30.21 in 10.0 mi North 12.7 mph - N/A   Overcast
2:15 AM 30.2 °F 18.9 °F 24.8 °F 80% 30.20 in 10.0 mi North 16.1 mph - N/A   Overcast
2:35 AM 28.4 °F 17.0 °F 24.8 °F 86% 30.21 in 10.0 mi North 15.0 mph - N/A   Overcast
2:55 AM 28.4 °F 17.0 °F 24.8 °F 86% 30.19 in 10.0 mi NNE 15.0 mph - N/A   Overcast
3:15 AM 28.4 °F 18.5 °F 24.8 °F 86% 30.19 in 10.0 mi North 11.5 mph - N/A   Overcast
3:35 AM 28.4 °F 19.1 °F 24.8 °F 86% 30.19 in 10.0 mi NNE 10.4 mph - N/A   Overcast
3:55 AM 28.4 °F 18.5 °F 26.6 °F 93% 30.18 in 10.0 mi NE 11.5 mph - N/A   Overcast
4:15 AM 30.2 °F 20.8 °F 24.8 °F 80% 30.18 in 10.0 mi NNE 11.5 mph - N/A   Overcast
4:35 AM 28.4 °F 18.0 °F 24.8 °F 86% 30.19 in 10.0 mi NNE 12.7 mph 17.3 mph N/A   Overcast
4:55 AM 28.4 °F 19.1 °F 24.8 °F 86% 30.19 in 10.0 mi NNE 10.4 mph - N/A   Overcast
5:15 AM 28.4 °F 17.5 °F 26.6 °F 93% 30.19 in 10.0 mi NNE 13.8 mph - N/A   Overcast
5:35 AM 28.4 °F 17.5 °F 26.6 °F 93% 30.19 in 10.0 mi NNE 13.8 mph - N/A   Overcast
5:55 AM 28.4 °F 17.5 °F 26.6 °F 93% 30.18 in 10.0 mi NNE 13.8 mph - N/A   Overcast
6:15 AM 28.4 °F 18.5 °F 24.8 °F 86% 30.19 in 10.0 mi NNE 11.5 mph - N/A   Overcast
6:35 AM 28.4 °F 18.0 °F 24.8 °F 86% 30.18 in 10.0 mi NE 12.7 mph - N/A   Overcast
6:55 AM 28.4 °F 18.0 °F 24.8 °F 86% 30.18 in 10.0 mi NNE 12.7 mph - N/A   Overcast
7:15 AM 28.4 °F 18.5 °F 24.8 °F 86% 30.17 in 10.0 mi NE 11.5 mph - N/A   Overcast
7:35 AM 28.4 °F 17.5 °F 26.6 °F 93% 30.17 in 10.0 mi NE 13.8 mph 18.4 mph N/A   Overcast
7:55 AM 28.4 °F 17.0 °F 24.8 °F 86% 30.17 in 10.0 mi ENE 15.0 mph 18.4 mph N/A   Overcast
8:15 AM 28.4 °F 17.0 °F 24.8 °F 86% 30.18 in 10.0 mi NE 15.0 mph 20.7 mph N/A   Overcast
8:55 AM 28.4 °F 18.0 °F 24.8 °F 86% 30.19 in 10.0 mi NE 12.7 mph - N/A   Overcast
9:15 AM 28.4 °F 17.0 °F 24.8 °F 86% 30.19 in 10.0 mi East 15.0 mph - N/A   Overcast
9:35 AM 28.4 °F 17.5 °F 24.8 °F 86% 30.20 in 10.0 mi East 13.8 mph - N/A   Overcast
9:55 AM 30.2 °F 19.8 °F 24.8 °F 80% 30.20 in 10.0 mi NE 13.8 mph 18.4 mph N/A   Overcast
10:15 AM 30.2 °F 20.2 °F 24.8 °F 80% 30.19 in 10.0 mi NE 12.7 mph 19.6 mph N/A   Overcast
10:35 AM 30.2 °F 19.3 °F 24.8 °F 80% 30.19 in 10.0 mi ENE 15.0 mph 19.6 mph N/A   Overcast
10:55 AM 30.2 °F 20.2 °F 24.8 °F 80% 30.18 in 10.0 mi ENE 12.7 mph 20.7 mph N/A   Overcast
11:15 AM 30.2 °F 18.5 °F 24.8 °F 80% 30.18 in 10.0 mi ENE 17.3 mph 21.9 mph N/A   Overcast
11:35 AM 30.2 °F 18.9 °F 24.8 °F 80% 30.18 in 10.0 mi ENE 16.1 mph - N/A   Overcast
11:55 AM 30.2 °F 18.5 °F 24.8 °F 80% 30.16 in 10.0 mi ENE 17.3 mph - N/A   Overcast
12:15 PM 32.0 °F 21.6 °F 24.8 °F 75% 30.15 in 10.0 mi ENE 15.0 mph - N/A   Overcast
12:35 PM 32.0 °F 21.6 °F 26.6 °F 80% 30.15 in 10.0 mi ENE 15.0 mph - N/A   Overcast
12:55 PM 33.8 °F 23.5 °F 24.8 °F 70% 30.14 in 10.0 mi ENE 16.1 mph 19.6 mph N/A   Overcast
1:15 PM 33.8 °F 24.3 °F 24.8 °F 70% 30.14 in 10.0 mi East 13.8 mph - N/A   Overcast
1:35 PM 33.8 °F 24.8 °F 24.8 °F 70% 30.12 in 10.0 mi ENE 12.7 mph 18.4 mph N/A   Overcast
1:55 PM 33.8 °F 22.8 °F 24.8 °F 70% 30.11 in 10.0 mi ENE 18.4 mph 23.0 mph N/A   Overcast
2:15 PM 33.8 °F 23.5 °F 24.8 °F 70% 30.11 in 10.0 mi ENE 16.1 mph 20.7 mph N/A   Overcast
2:35 PM 33.8 °F 22.8 °F 24.8 °F 70% 30.10 in 10.0 mi ENE 18.4 mph - N/A   Overcast
2:55 PM 33.8 °F 22.8 °F 24.8 °F 70% 30.09 in 10.0 mi ENE 18.4 mph - N/A   Overcast
3:15 PM 33.8 °F 23.5 °F 24.8 °F 70% 30.10 in 10.0 mi ENE 16.1 mph - N/A   Overcast
3:35 PM 33.8 °F 25.3 °F 26.6 °F 75% 30.10 in 10.0 mi ENE 11.5 mph - N/A   Overcast
3:55 PM 33.8 °F 24.8 °F 24.8 °F 70% 30.10 in 10.0 mi ENE 12.7 mph 17.3 mph N/A   Overcast
4:15 PM 33.8 °F 23.9 °F 24.8 °F 70% 30.10 in 10.0 mi ENE 15.0 mph - N/A   Overcast
4:35 PM 33.8 °F 23.9 °F 24.8 °F 70% 30.09 in 10.0 mi NE 15.0 mph - N/A   Overcast
4:55 PM 32.0 °F 21.2 °F 24.8 °F 75% 30.09 in 10.0 mi NE 16.1 mph 20.7 mph N/A   Overcast
5:15 PM 32.0 °F 20.1 °F 24.8 °F 75% 30.08 in 10.0 mi ENE 19.6 mph 25.3 mph N/A   Overcast
5:35 PM 30.2 °F 18.1 °F 24.8 °F 80% 30.09 in 10.0 mi NE 18.4 mph - N/A   Overcast
5:55 PM 30.2 °F 18.1 °F 24.8 °F 80% 30.08 in 10.0 mi ENE 18.4 mph - N/A   Overcast
6:15 PM 30.2 °F 18.5 °F 24.8 °F 80% 30.07 in 10.0 mi ENE 17.3 mph 23.0 mph N/A   Overcast
6:35 PM 30.2 °F 17.1 °F 24.8 °F 80% 30.06 in 10.0 mi ENE 21.9 mph 25.3 mph N/A   Overcast
6:55 PM 30.2 °F 16.8 °F 24.8 °F 80% 30.06 in 10.0 mi ENE 23.0 mph 27.6 mph N/A   Overcast
7:15 PM 30.2 °F 18.9 °F 24.8 °F 80% 30.07 in 10.0 mi ENE 16.1 mph 26.5 mph N/A   Overcast
7:35 PM 30.2 °F 17.8 °F 24.8 °F 80% 30.06 in 10.0 mi ENE 19.6 mph 25.3 mph N/A   Overcast
7:55 PM 30.2 °F 17.8 °F 24.8 °F 80% 30.05 in 10.0 mi ENE 19.6 mph 24.2 mph N/A   Overcast
8:15 PM 30.2 °F 17.8 °F 24.8 °F 80% 30.05 in 10.0 mi ENE 19.6 mph 24.2 mph N/A   Overcast
8:35 PM 30.2 °F 17.8 °F 24.8 °F 80% 30.05 in 10.0 mi ENE 19.6 mph 25.3 mph N/A   Overcast
8:55 PM 30.2 °F 18.1 °F 24.8 °F 80% 30.04 in 10.0 mi ENE 18.4 mph 24.2 mph N/A   Overcast
9:15 PM 30.2 °F 18.5 °F 24.8 °F 80% 30.05 in 10.0 mi East 17.3 mph 23.0 mph N/A   Overcast
9:35 PM 30.2 °F 18.1 °F 24.8 °F 80% 30.04 in 10.0 mi ENE 18.4 mph 23.0 mph N/A   Overcast
9:55 PM 30.2 °F 18.1 °F 24.8 °F 80% 30.03 in 10.0 mi ENE 18.4 mph 25.3 mph N/A   Overcast
10:15 PM 30.2 °F 18.5 °F 26.6 °F 86% 30.01 in 10.0 mi ENE 17.3 mph 23.0 mph N/A   Overcast
10:35 PM 30.2 °F 17.8 °F 24.8 °F 80% 30.00 in 10.0 mi ENE 19.6 mph 23.0 mph N/A   Overcast
10:55 PM 30.2 °F 19.3 °F 24.8 °F 80% 30.00 in 10.0 mi ENE 15.0 mph 23.0 mph N/A   Overcast
11:15 PM 30.2 °F 18.5 °F 24.8 °F 80% 30.00 in 10.0 mi ENE 17.3 mph - N/A   Overcast
11:35 PM 30.2 °F 17.8 °F 24.8 °F 80% 29.99 in 10.0 mi ENE 19.6 mph - N/A   Overcast
11:55 PM 30.2 °F 19.3 °F 24.8 °F 80% 29.99 in 10.0 mi ENE 15.0 mph - N/A   Overcast